QPF
0.00 0.01 0.02 0.02 0.02 0.02 0.03 0.07 0.15 0.15 0.14 0.16 0.18 0.17 0.17 0.14 0.14 0.14 0.12 0.11 0.11 0.10 0.11 0.11 0.11 0.13 0.13 0.14 0.13 0.13 0.13 0.12 0.09 0.07 0.05 0.05 0.04 0.03 0.02 0.02 0.02 0.02 0.02 0.02
0.00 0.00 0.01 0.02 0.02 0.03 0.04 0.06 0.09 0.10 0.12 0.13 0.10 0.09 0.09 0.10 0.11 0.10 0.08 0.06 0.06 0.05 0.04 0.03 0.03 0.05 0.06 0.07 0.06 0.07 0.06 0.06 0.06 0.05 0.05 0.05 0.04 0.02 0.02 0.02 0.02 0.03 0.03 0.03
0.00 0.00 0.00 0.01 0.02 0.03 0.04 0.05 0.06 0.06 0.06 0.04 0.03 0.03 0.05 0.06 0.06 0.06 0.04 0.03 0.02 0.01 0.01 0.01 0.00 0.00 0.00 0.01 0.01 0.01 0.01 0.01 0.01 0.02 0.02 0.02 0.02 0.02 0.01 0.01 0.02 0.02 0.03 0.04
0.00 0.00 0.00 0.00 0.00 0.01 0.02 0.02 0.03 0.03 0.03 0.03 0.02 0.02 0.02 0.02 0.03 0.04 0.02 0.01 0.00 0.00 0.00 0.00 0.00 0.00 0.00 0.00 0.00 0.00 0.00 0.00 0.00 0.00 0.00 0.00 0.01 0.01 0.01 0.02 0.02 0.02 0.02 0.02
0.00 0.00 0.00 0.00 0.00 0.00 0.01 0.01 0.01 0.02 0.01 0.01 0.01 0.00 0.00 0.00 0.00 0.00 0.00 0.00 0.00 0.00 0.00 0.00 0.00 0.00 0.00 0.00 0.00 0.00 0.00 0.00 0.00 0.00 0.00 0.00 0.00 0.00 0.00 0.01 0.01 0.01 0.01 0.01
0.00 0.00 0.00 0.00 0.00 0.00 0.00 0.00 0.00 0.01 0.01 0.00 0.00 0.00 0.00 0.00 0.00 0.00 0.00 0.00 0.00 0.00 0.00 0.00 0.00 0.00 0.00 0.00 0.00 0.00 0.00 0.00 0.00 0.00 0.00 0.00 0.00 0.00 0.00 0.00 0.00 0.00 0.01 0.01
0.00 0.00 0.00 0.00 0.00 0.00 0.00 0.00 0.00 0.00 0.00 0.00 0.00 0.00 0.00 0.00 0.00 0.00 0.00 0.00 0.00 0.00 0.00 0.00 0.00 0.00 0.00 0.00 0.00 0.00 0.00 0.00 0.00 0.00 0.00 0.00 0.00 0.00 0.00 0.00 0.00 0.00 0.00 0.00
0.00 0.00 0.00 0.00 0.00 0.00 0.00 0.00 0.00 0.00 0.00 0.00 0.00 0.00 0.00 0.00 0.00 0.00 0.00 0.00 0.00 0.00 0.00 0.00 0.00 0.00 0.00 0.00 0.00 0.00 0.00 0.00 0.00 0.00 0.00 0.00 0.00 0.00 0.00 0.00 0.00 0.00 0.00 0.00
0.00 0.00 0.00 0.00 0.00 0.00 0.00 0.00 0.00 0.00 0.00 0.00 0.00 0.00 0.00 0.00 0.00 0.00 0.00 0.00 0.00 0.00 0.00 0.00 0.00 0.00 0.00 0.00 0.00 0.00 0.00 0.00 0.00 0.00 0.00 0.00 0.00 0.00 0.00 0.00 0.00 0.00 0.00 0.00
0.00 0.00 0.00 0.00 0.00 0.00 0.00 0.00 0.00 0.00 0.00 0.00 0.00 0.00 0.00 0.00 0.00 0.00 0.00 0.00 0.00 0.00 0.00 0.00 0.00 0.00 0.00 0.00 0.00 0.00 0.00 0.00 0.00 0.00 0.00 0.00 0.00 0.00 0.00 0.00 0.00 0.00 0.00 0.00
0.00 0.00 0.00 0.00 0.00 0.00 0.00 0.00 0.00 0.00 0.00 0.00 0.00 0.00 0.00 0.00 0.00 0.00 0.00 0.00 0.00 0.00 0.00 0.00 0.00 0.00 0.00 0.00 0.00 0.00 0.00 0.00 0.00 0.00 0.00 0.00 0.00 0.00 0.00 0.00 0.00 0.00 0.00 0.00
0.00 0.00 0.00 0.00 0.00 0.00 0.00 0.00 0.00 0.00 0.00 0.00 0.00 0.00 0.00 0.00 0.00 0.00 0.00 0.00 0.00 0.00 0.00 0.00 0.00 0.00 0.00 0.00 0.00 0.00 0.00 0.00 0.00 0.00 0.00 0.00 0.00 0.00 0.00 0.00 0.00 0.00 0.00 0.00
0.00 0.00 0.00 0.00 0.00 0.00 0.00 0.00 0.00 0.00 0.00 0.00 0.00 0.00 0.00 0.00 0.00 0.00 0.00 0.00 0.00 0.00 0.00 0.00 0.00 0.00 0.00 0.00 0.00 0.00 0.00 0.00 0.00 0.00 0.00 0.00 0.00 0.00 0.00 0.00 0.00 0.00 0.00 0.00
0.00 0.00 0.00 0.00 0.00 0.00 0.00 0.00 0.00 0.00 0.00 0.00 0.00 0.00 0.00 0.00 0.00 0.00 0.00 0.00 0.00 0.00 0.00 0.00 0.00 0.00 0.00 0.00 0.00 0.00 0.00 0.00 0.00 0.00 0.00 0.00 0.00 0.00 0.00 0.00 0.00 0.00 0.00 0.00
0.00 0.00 0.00 0.00 0.00 0.00 0.00 0.00 0.00 0.00 0.00 0.00 0.00 0.00 0.00 0.00 0.00 0.00 0.00 0.00 0.00 0.00 0.00 0.00 0.00 0.00 0.00 0.00 0.00 0.00 0.00 0.00 0.00 0.00 0.00 0.00 0.00 0.00 0.00 0.00 0.00 0.00 0.00 0.00
0.00 0.00 0.00 0.00 0.00 0.00 0.00 0.00 0.00 0.00 0.00 0.00 0.00 0.00 0.00 0.00 0.00 0.00 0.00 0.00 0.00 0.00 0.00 0.00 0.00 0.00 0.00 0.00 0.00 0.00 0.00 0.00 0.00 0.00 0.00 0.00 0.00 0.00 0.00 0.00 0.00 0.00 0.00 0.00
0.00 0.00 0.00 0.00 0.00 0.00 0.00 0.00 0.00 0.00 0.00 0.00 0.00 0.00 0.00 0.00 0.00 0.00 0.00 0.00 0.00 0.00 0.00 0.00 0.00 0.00 0.00 0.00 0.00 0.00 0.00 0.00 0.00 0.00 0.00 0.00 0.00 0.00 0.00 0.00 0.00 0.00 0.00 0.00
0.00 0.00 0.00 0.00 0.00 0.00 0.00 0.00 0.00 0.00 0.00 0.00 0.00 0.00 0.00 0.00 0.00 0.00 0.00 0.00 0.00 0.00 0.00 0.00 0.00 0.00 0.00 0.00 0.00 0.00 0.00 0.00 0.00 0.00 0.00 0.00 0.00 0.00 0.00 0.00 0.00 0.00 0.00 0.00
0.00 0.00 0.00 0.00 0.00 0.00 0.00 0.00 0.00 0.00 0.00 0.00 0.00 0.00 0.00 0.00 0.00 0.00 0.00 0.00 0.00 0.00 0.00 0.00 0.00 0.00 0.00 0.00 0.00 0.00 0.00 0.00 0.00 0.00 0.00 0.00 0.00 0.00 0.00 0.00 0.00 0.00 0.00 0.00
0.00 0.00 0.00 0.00 0.00 0.00 0.00 0.00 0.00 0.00 0.00 0.00 0.00 0.00 0.00 0.00 0.00 0.00 0.00 0.00 0.00 0.00 0.00 0.00 0.00 0.00 0.00 0.00 0.00 0.00 0.00 0.00 0.00 0.00 0.00 0.00 0.00 0.00 0.00 0.00 0.00 0.00 0.00 0.00
0.00 0.00 0.00 0.00 0.00 0.00 0.00 0.00 0.00 0.00 0.00 0.00 0.00 0.00 0.00 0.00 0.00 0.00 0.00 0.00 0.00 0.00 0.00 0.00 0.00 0.00 0.00 0.00 0.00 0.00 0.00 0.00 0.00 0.00 0.00 0.00 0.00 0.00 0.00 0.00 0.00 0.00 0.00 0.00
0.00 0.00 0.00 0.00 0.00 0.00 0.00 0.00 0.00 0.00 0.00 0.00 0.00 0.00 0.00 0.00 0.00 0.00 0.00 0.00 0.00 0.00 0.00 0.00 0.00 0.00 0.00 0.00 0.00 0.00 0.00 0.00 0.00 0.00 0.00 0.00 0.00 0.00 0.00 0.00 0.00 0.00 0.00 0.00
0.00 0.00 0.00 0.00 0.00 0.00 0.00 0.00 0.00 0.00 0.00 0.00 0.00 0.00 0.00 0.00 0.00 0.00 0.00 0.00 0.00 0.00 0.00 0.00 0.00 0.00 0.00 0.00 0.00 0.00 0.00 0.00 0.00 0.00 0.00 0.00 0.00 0.00 0.00 0.00 0.00 0.00 0.00 0.00
0.00 0.00 0.00 0.00 0.00 0.00 0.00 0.00 0.00 0.00 0.00 0.00 0.00 0.00 0.00 0.00 0.00 0.00 0.00 0.00 0.00 0.00 0.00 0.00 0.00 0.00 0.00 0.00 0.00 0.00 0.00 0.00 0.00 0.00 0.00 0.00 0.00 0.00 0.00 0.00 0.00 0.00 0.00 0.00
0.00 0.00 0.00 0.00 0.00 0.00 0.00 0.00 0.00 0.00 0.00 0.00 0.00 0.00 0.00 0.00 0.00 0.00 0.00 0.00 0.00 0.00 0.00 0.00 0.00 0.00 0.00 0.00 0.00 0.00 0.00 0.00 0.00 0.00 0.00 0.00 0.00 0.00 0.00 0.00 0.00 0.00 0.00 0.00
0.00 0.00 0.00 0.00 0.00 0.00 0.00 0.00 0.00 0.00 0.00 0.00 0.00 0.00 0.00 0.00 0.00 0.00 0.00 0.00 0.00 0.00 0.00 0.00 0.00 0.00 0.00 0.00 0.00 0.00 0.00 0.00 0.00 0.00 0.00 0.00 0.00 0.00 0.00 0.00 0.00 0.00 0.00 0.00
0.00 0.00 0.00 0.00 0.00 0.00 0.00 0.00 0.00 0.00 0.00 0.00 0.00 0.00 0.00 0.00 0.00 0.00 0.00 0.00 0.00 0.00 0.00 0.00 0.00 0.00 0.00 0.00 0.00 0.00 0.00 0.00 0.00 0.00 0.00 0.00 0.00 0.00 0.00 0.00 0.00 0.00 0.00 0.00
MSLP
1022.26 1022.54 1022.87 1023.22 1023.59 1023.93 1024.22 1024.41 1024.49 1024.42 1024.20 1023.82 1023.31 1022.68 1021.97 1021.21 1020.44 1019.67 1018.94 1018.25 1017.62 1017.05 1016.53 1016.07 1015.65 1015.27 1014.94 1014.65 1014.40 1014.19 1014.00 1013.85 1013.71 1013.58 1013.45 1013.31 1013.16 1013.00 1012.84 1012.69 1012.56 1012.47 1012.42 1012.43
1022.33 1022.57 1022.83 1023.12 1023.41 1023.67 1023.88 1024.00 1024.01 1023.91 1023.67 1023.31 1022.83 1022.25 1021.61 1020.93 1020.23 1019.53 1018.86 1018.22 1017.63 1017.09 1016.61 1016.18 1015.80 1015.48 1015.21 1014.99 1014.81 1014.67 1014.55 1014.46 1014.36 1014.26 1014.14 1013.99 1013.81 1013.61 1013.39 1013.16 1012.95 1012.77 1012.63 1012.53
1022.36 1022.54 1022.73 1022.92 1023.11 1023.26 1023.36 1023.40 1023.34 1023.19 1022.94 1022.59 1022.16 1021.65 1021.10 1020.51 1019.91 1019.31 1018.72 1018.15 1017.62 1017.14 1016.70 1016.31 1015.98 1015.71 1015.49 1015.33 1015.21 1015.14 1015.08 1015.04 1014.99 1014.92 1014.81 1014.67 1014.47 1014.24 1013.98 1013.69 1013.41 1013.15 1012.92 1012.73
1022.38 1022.48 1022.59 1022.69 1022.77 1022.82 1022.82 1022.77 1022.65 1022.46 1022.20 1021.87 1021.49 1021.06 1020.60 1020.11 1019.61 1019.11 1018.62 1018.14 1017.67 1017.25 1016.85 1016.51 1016.22 1015.99 1015.81 1015.69 1015.62 1015.58 1015.57 1015.56 1015.54 1015.49 1015.41 1015.27 1015.07 1014.83 1014.55 1014.23 1013.91 1013.58 1013.29 1013.03
1022.35 1022.40 1022.44 1022.47 1022.47 1022.43 1022.36 1022.24 1022.07 1021.86 1021.60 1021.30 1020.97 1020.62 1020.24 1019.85 1019.45 1019.04 1018.63 1018.22 1017.82 1017.44 1017.09 1016.78 1016.52 1016.31 1016.15 1016.05 1016.00 1015.98 1015.99 1015.99 1015.99 1015.96 1015.88 1015.76 1015.58 1015.34 1015.06 1014.74 1014.41 1014.06 1013.73 1013.43
1022.27 1022.29 1022.29 1022.27 1022.23 1022.15 1022.04 1021.89 1021.71 1021.49 1021.25 1020.98 1020.70 1020.40 1020.09 1019.77 1019.44 1019.10 1018.75 1018.40 1018.04 1017.70 1017.38 1017.09 1016.84 1016.64 1016.49 1016.39 1016.34 1016.32 1016.32 1016.33 1016.33 1016.30 1016.24 1016.13 1015.97 1015.77 1015.51 1015.22 1014.91 1014.57 1014.23 1013.91
1022.08 1022.11 1022.11 1022.10 1022.05 1021.97 1021.86 1021.72 1021.55 1021.35 1021.14 1020.91 1020.66 1020.41 1020.14 1019.87 1019.58 1019.27 1018.96 1018.63 1018.30 1017.97 1017.66 1017.38 1017.13 1016.93 1016.77 1016.67 1016.60 1016.57 1016.57 1016.57 1016.56 1016.54 1016.50 1016.41 1016.29 1016.12 1015.92 1015.68 1015.40 1015.10 1014.79 1014.47
1021.77 1021.83 1021.87 1021.89 1021.88 1021.84 1021.78 1021.67 1021.55 1021.39 1021.21 1021.02 1020.80 1020.58 1020.33 1020.07 1019.79 1019.49 1019.18 1018.85 1018.52 1018.19 1017.88 1017.59 1017.34 1017.13 1016.98 1016.86 1016.79 1016.75 1016.73 1016.73 1016.73 1016.71 1016.69 1016.63 1016.55 1016.44 1016.29 1016.11 1015.90 1015.65 1015.37 1015.08
1021.33 1021.44 1021.53 1021.61 1021.67 1021.71 1021.71 1021.67 1021.61 1021.51 1021.37 1021.21 1021.02 1020.81 1020.56 1020.29 1020.00 1019.68 1019.35 1019.00 1018.65 1018.31 1017.98 1017.69 1017.44 1017.23 1017.08 1016.97 1016.90 1016.86 1016.84 1016.84 1016.85 1016.86 1016.85 1016.83 1016.80 1016.74 1016.65 1016.53 1016.38 1016.19 1015.96 1015.69
1020.79 1020.94 1021.09 1021.25 1021.39 1021.50 1021.59 1021.63 1021.64 1021.60 1021.51 1021.39 1021.21 1021.00 1020.75 1020.46 1020.14 1019.79 1019.42 1019.04 1018.66 1018.30 1017.97 1017.67 1017.43 1017.23 1017.09 1016.99 1016.94 1016.92 1016.92 1016.94 1016.96 1016.99 1017.02 1017.03 1017.04 1017.03 1016.99 1016.93 1016.83 1016.70 1016.51 1016.28
1020.17 1020.36 1020.57 1020.79 1021.01 1021.21 1021.37 1021.50 1021.57 1021.59 1021.55 1021.46 1021.31 1021.09 1020.83 1020.52 1020.17 1019.79 1019.38 1018.97 1018.57 1018.20 1017.86 1017.57 1017.34 1017.16 1017.04 1016.97 1016.95 1016.96 1016.99 1017.03 1017.08 1017.13 1017.18 1017.23 1017.27 1017.29 1017.30 1017.28 1017.23 1017.14 1017.00 1016.81
1019.54 1019.75 1020.01 1020.28 1020.56 1020.82 1021.06 1021.25 1021.39 1021.46 1021.47 1021.40 1021.27 1021.06 1020.79 1020.47 1020.10 1019.69 1019.27 1018.84 1018.42 1018.04 1017.70 1017.42 1017.20 1017.05 1016.96 1016.93 1016.94 1016.99 1017.05 1017.12 1017.20 1017.27 1017.35 1017.41 1017.47 1017.52 1017.55 1017.56 1017.55 1017.50 1017.40 1017.24
1018.95 1019.18 1019.45 1019.76 1020.08 1020.40 1020.69 1020.93 1021.11 1021.23 1021.28 1021.24 1021.13 1020.93 1020.67 1020.35 1019.97 1019.55 1019.12 1018.68 1018.26 1017.88 1017.55 1017.28 1017.08 1016.95 1016.89 1016.89 1016.93 1017.01 1017.10 1017.20 1017.30 1017.39 1017.47 1017.55 1017.61 1017.67 1017.72 1017.75 1017.76 1017.74 1017.69 1017.59
1018.44 1018.67 1018.96 1019.29 1019.64 1019.99 1020.31 1020.59 1020.81 1020.96 1021.03 1021.03 1020.93 1020.76 1020.52 1020.20 1019.84 1019.43 1019.00 1018.56 1018.15 1017.77 1017.44 1017.18 1016.99 1016.88 1016.84 1016.86 1016.92 1017.02 1017.13 1017.25 1017.36 1017.46 1017.55 1017.62 1017.68 1017.74 1017.79 1017.84 1017.87 1017.89 1017.88 1017.84
1018.01 1018.25 1018.56 1018.91 1019.28 1019.65 1019.99 1020.29 1020.53 1020.70 1020.79 1020.81 1020.74 1020.60 1020.37 1020.08 1019.74 1019.35 1018.93 1018.51 1018.10 1017.72 1017.39 1017.13 1016.95 1016.83 1016.79 1016.82 1016.90 1017.00 1017.12 1017.25 1017.36 1017.47 1017.55 1017.62 1017.68 1017.73 1017.79 1017.84 1017.90 1017.95 1017.99 1018.01
1017.67 1017.93 1018.25 1018.63 1019.01 1019.40 1019.75 1020.06 1020.31 1020.49 1020.61 1020.64 1020.60 1020.47 1020.28 1020.02 1019.70 1019.33 1018.93 1018.52 1018.11 1017.73 1017.40 1017.13 1016.93 1016.80 1016.75 1016.77 1016.84 1016.94 1017.06 1017.19 1017.30 1017.40 1017.49 1017.55 1017.61 1017.67 1017.72 1017.79 1017.87 1017.96 1018.05 1018.14
1017.38 1017.67 1018.04 1018.43 1018.84 1019.23 1019.59 1019.91 1020.16 1020.35 1020.48 1020.52 1020.50 1020.40 1020.23 1020.00 1019.71 1019.36 1018.98 1018.57 1018.17 1017.78 1017.44 1017.15 1016.92 1016.77 1016.69 1016.69 1016.74 1016.83 1016.95 1017.07 1017.19 1017.29 1017.38 1017.45 1017.51 1017.57 1017.64 1017.72 1017.82 1017.94 1018.09 1018.24
1017.12 1017.47 1017.87 1018.30 1018.72 1019.12 1019.49 1019.81 1020.06 1020.25 1020.38 1020.44 1020.43 1020.35 1020.21 1020.00 1019.73 1019.41 1019.04 1018.65 1018.24 1017.85 1017.48 1017.16 1016.91 1016.72 1016.61 1016.58 1016.61 1016.68 1016.79 1016.91 1017.04 1017.15 1017.25 1017.34 1017.41 1017.49 1017.57 1017.67 1017.79 1017.94 1018.12 1018.32
1016.88 1017.28 1017.71 1018.16 1018.60 1019.01 1019.38 1019.69 1019.95 1020.14 1020.27 1020.34 1020.34 1020.29 1020.17 1019.99 1019.74 1019.44 1019.09 1018.71 1018.30 1017.90 1017.51 1017.17 1016.88 1016.66 1016.52 1016.45 1016.46 1016.52 1016.62 1016.75 1016.88 1017.02 1017.14 1017.25 1017.34 1017.44 1017.54 1017.65 1017.79 1017.95 1018.15 1018.38
1016.66 1017.08 1017.54 1018.00 1018.44 1018.85 1019.21 1019.51 1019.76 1019.95 1020.09 1020.17 1020.19 1020.15 1020.06 1019.91 1019.70 1019.43 1019.10 1018.73 1018.33 1017.92 1017.52 1017.15 1016.84 1016.59 1016.42 1016.33 1016.31 1016.36 1016.46 1016.59 1016.74 1016.90 1017.05 1017.18 1017.31 1017.42 1017.54 1017.67 1017.81 1017.98 1018.19 1018.42
1016.46 1016.88 1017.32 1017.77 1018.20 1018.59 1018.93 1019.23 1019.47 1019.66 1019.80 1019.89 1019.94 1019.93 1019.87 1019.75 1019.58 1019.34 1019.04 1018.70 1018.31 1017.91 1017.51 1017.14 1016.80 1016.53 1016.34 1016.22 1016.19 1016.22 1016.32 1016.46 1016.62 1016.80 1016.97 1017.13 1017.28 1017.42 1017.55 1017.69 1017.83 1018.00 1018.19 1018.41
1016.30 1016.68 1017.08 1017.48 1017.87 1018.23 1018.55 1018.82 1019.05 1019.24 1019.39 1019.50 1019.57 1019.60 1019.58 1019.51 1019.38 1019.18 1018.93 1018.62 1018.27 1017.88 1017.49 1017.12 1016.78 1016.49 1016.28 1016.14 1016.09 1016.11 1016.20 1016.33 1016.50 1016.69 1016.88 1017.07 1017.23 1017.39 1017.53 1017.67 1017.82 1017.98 1018.15 1018.35
1016.18 1016.48 1016.81 1017.15 1017.48 1017.79 1018.07 1018.32 1018.54 1018.73 1018.89 1019.02 1019.12 1019.19 1019.21 1019.19 1019.11 1018.96 1018.76 1018.50 1018.18 1017.83 1017.46 1017.10 1016.76 1016.47 1016.24 1016.08 1016.01 1016.01 1016.07 1016.20 1016.36 1016.55 1016.75 1016.94 1017.12 1017.29 1017.44 1017.59 1017.73 1017.88 1018.05 1018.23
1016.10 1016.30 1016.54 1016.79 1017.05 1017.30 1017.53 1017.75 1017.96 1018.15 1018.32 1018.47 1018.60 1018.71 1018.78 1018.80 1018.78 1018.69 1018.54 1018.33 1018.06 1017.75 1017.41 1017.07 1016.74 1016.44 1016.19 1016.02 1015.92 1015.89 1015.93 1016.03 1016.17 1016.35 1016.54 1016.73 1016.91 1017.09 1017.25 1017.40 1017.55 1017.70 1017.86 1018.04
1016.03 1016.13 1016.27 1016.43 1016.61 1016.80 1016.99 1017.18 1017.37 1017.55 1017.73 1017.90 1018.06 1018.20 1018.31 1018.38 1018.40 1018.37 1018.27 1018.11 1017.89 1017.62 1017.32 1017.00 1016.68 1016.38 1016.13 1015.93 1015.80 1015.73 1015.74 1015.80 1015.91 1016.06 1016.23 1016.42 1016.60 1016.77 1016.94 1017.10 1017.26 1017.42 1017.59 1017.79
1015.94 1015.94 1015.99 1016.07 1016.19 1016.32 1016.47 1016.63 1016.80 1016.98 1017.16 1017.34 1017.52 1017.68 1017.82 1017.93 1017.99 1018.00 1017.95 1017.83 1017.66 1017.43 1017.16 1016.87 1016.57 1016.27 1016.01 1015.79 1015.63 1015.53 1015.49 1015.52 1015.59 1015.70 1015.85 1016.01 1016.19 1016.36 1016.54 1016.71 1016.89 1017.07 1017.27 1017.49
1015.76 1015.70 1015.68 1015.71 1015.77 1015.86 1015.98 1016.11 1016.27 1016.44 1016.61 1016.80 1016.98 1017.15 1017.31 1017.44 1017.53 1017.57 1017.55 1017.48 1017.35 1017.16 1016.93 1016.66 1016.38 1016.10 1015.84 1015.61 1015.42 1015.29 1015.21 1015.19 1015.23 1015.30 1015.42 1015.56 1015.72 1015.89 1016.07 1016.27 1016.47 1016.68 1016.91 1017.16
Thickness
5629 5621 5615 5608 5606 5607 5604 5599 5594 5591 5591 5592 5597 5600 5606 5611 5617 5622 5626 5630 5633 5636 5639 5643 5646 5649 5652 5655 5658 5661 5662 5663 5664 5666 5667 5669 5670 5672 5673 5673 5674 5674 5675 5674
5631 5625 5621 5615 5611 5609 5605 5603 5602 5602 5599 5604 5607 5611 5614 5617 5620 5624 5627 5631 5634 5637 5639 5641 5644 5646 5649 5652 5654 5656 5656 5656 5658 5660 5661 5661 5663 5664 5665 5664 5665 5666 5667 5668
5641 5632 5627 5620 5614 5612 5610 5609 5609 5606 5606 5612 5615 5617 5619 5621 5625 5627 5629 5633 5635 5638 5640 5642 5643 5645 5647 5649 5651 5652 5652 5652 5653 5654 5654 5655 5656 5656 5656 5656 5657 5659 5660 5661
5645 5637 5626 5627 5625 5618 5616 5616 5616 5615 5616 5618 5620 5624 5628 5628 5629 5632 5633 5636 5638 5640 5642 5644 5646 5646 5647 5648 5648 5648 5647 5647 5647 5647 5647 5647 5647 5647 5648 5649 5649 5650 5651 5653
5650 5644 5636 5630 5629 5625 5623 5624 5624 5622 5623 5627 5631 5635 5637 5635 5633 5634 5636 5638 5640 5641 5644 5646 5646 5647 5648 5647 5645 5643 5642 5641 5641 5640 5639 5639 5639 5638 5639 5641 5642 5642 5642 5643
5652 5648 5639 5642 5640 5634 5628 5629 5631 5628 5628 5630 5636 5639 5636 5636 5636 5638 5639 5640 5641 5644 5646 5646 5645 5646 5646 5644 5642 5639 5637 5636 5635 5634 5633 5632 5631 5631 5632 5633 5633 5634 5633 5634
5656 5654 5653 5649 5641 5634 5630 5636 5635 5634 5632 5632 5633 5633 5634 5637 5639 5640 5641 5642 5643 5645 5645 5645 5645 5645 5644 5641 5638 5635 5634 5633 5631 5629 5627 5625 5624 5624 5624 5625 5625 5626 5625 5625
5660 5655 5653 5652 5643 5640 5646 5643 5639 5637 5635 5634 5634 5636 5638 5639 5641 5642 5643 5643 5644 5644 5645 5645 5644 5644 5641 5637 5635 5633 5631 5629 5626 5624 5622 5620 5619 5618 5618 5618 5619 5618 5618 5618
5670 5668 5663 5658 5655 5652 5649 5645 5642 5640 5638 5636 5636 5638 5639 5641 5644 5645 5645 5645 5645 5645 5646 5647 5646 5643 5641 5637 5635 5633 5630 5627 5625 5622 5619 5617 5615 5614 5613 5613 5613 5612 5612 5611
5671 5671 5665 5660 5657 5653 5650 5647 5644 5642 5640 5639 5639 5641 5642 5644 5646 5647 5647 5647 5647 5648 5648 5649 5647 5645 5642 5639 5636 5635 5631 5629 5626 5623 5619 5616 5612 5611 5609 5608 5607 5606 5606 5605
5677 5677 5668 5663 5660 5657 5652 5649 5646 5644 5643 5642 5641 5642 5644 5646 5647 5648 5649 5650 5650 5650 5650 5651 5650 5648 5646 5642 5640 5637 5635 5631 5628 5623 5619 5616 5611 5606 5605 5602 5599 5600 5600 5601
5688 5688 5680 5675 5669 5662 5654 5650 5648 5645 5645 5645 5644 5643 5645 5647 5649 5650 5651 5652 5653 5653 5654 5654 5654 5652 5650 5646 5643 5641 5637 5633 5630 5626 5621 5618 5615 5610 5601 5600 5597 5596 5595 5597
5697 5692 5686 5679 5674 5666 5659 5654 5650 5647 5646 5645 5646 5646 5646 5648 5650 5652 5654 5655 5655 5655 5656 5657 5657 5656 5654 5650 5646 5643 5639 5635 5632 5628 5624 5621 5618 5615 5610 5603 5598 5596 5594 5593
5693 5689 5682 5678 5673 5668 5663 5657 5653 5650 5648 5647 5646 5647 5648 5649 5652 5653 5655 5656 5657 5658 5660 5661 5660 5659 5658 5655 5650 5647 5643 5636 5633 5630 5626 5624 5620 5617 5613 5610 5607 5602 5596 5592
5692 5691 5688 5683 5676 5670 5664 5659 5654 5651 5649 5648 5647 5647 5648 5649 5651 5653 5656 5657 5659 5661 5662 5662 5662 5661 5659 5657 5654 5650 5646 5642 5638 5634 5630 5626 5622 5619 5616 5612 5610 5607 5604 5599
5693 5688 5685 5682 5676 5671 5666 5661 5657 5654 5651 5648 5648 5648 5648 5650 5651 5654 5657 5658 5659 5661 5662 5663 5663 5662 5661 5659 5656 5653 5648 5641 5638 5637 5634 5630 5626 5623 5619 5616 5613 5609 5605 5602
5693 5687 5684 5681 5677 5673 5669 5664 5660 5656 5653 5650 5649 5648 5649 5650 5653 5655 5657 5659 5660 5662 5664 5664 5664 5663 5663 5662 5659 5657 5653 5646 5638 5639 5637 5634 5630 5627 5623 5619 5615 5611 5606 5600
5699 5695 5691 5686 5681 5675 5670 5666 5661 5657 5654 5652 5649 5648 5649 5650 5651 5653 5656 5659 5662 5665 5665 5665 5664 5664 5665 5663 5661 5660 5656 5653 5648 5644 5640 5636 5633 5630 5626 5622 5619 5614 5610 5605
5697 5694 5690 5686 5682 5678 5673 5668 5663 5659 5656 5652 5650 5650 5649 5650 5651 5652 5655 5658 5660 5662 5663 5665 5662 5667 5667 5664 5661 5660 5659 5655 5651 5647 5643 5636 5634 5632 5629 5626 5622 5618 5614 5610
5692 5690 5686 5682 5678 5675 5671 5667 5663 5660 5657 5654 5652 5650 5650 5651 5651 5652 5653 5656 5658 5658 5660 5661 5664 5667 5667 5666 5661 5662 5660 5657 5654 5649 5646 5642 5639 5636 5633 5629 5626 5622 5618 5613
5688 5685 5681 5678 5674 5671 5669 5666 5663 5659 5657 5654 5652 5651 5651 5651 5650 5651 5652 5655 5657 5656 5658 5660 5664 5666 5667 5665 5661 5663 5661 5659 5656 5652 5648 5645 5642 5639 5636 5633 5629 5625 5621 5616
5684 5681 5677 5675 5671 5669 5667 5665 5662 5660 5657 5655 5652 5651 5651 5650 5651 5651 5652 5652 5654 5653 5656 5661 5664 5662 5662 5662 5664 5663 5662 5660 5658 5655 5651 5648 5645 5642 5639 5636 5632 5628 5624 5620
5679 5677 5674 5672 5669 5668 5665 5662 5660 5658 5656 5654 5653 5652 5651 5650 5650 5649 5651 5653 5652 5651 5654 5659 5658 5658 5659 5663 5665 5664 5663 5661 5659 5657 5654 5651 5648 5645 5642 5638 5635 5631 5627 5622
5670 5670 5670 5669 5667 5664 5661 5659 5657 5656 5654 5653 5653 5652 5651 5650 5650 5651 5651 5649 5648 5648 5653 5655 5655 5657 5659 5665 5666 5665 5664 5663 5660 5658 5656 5653 5650 5648 5644 5641 5638 5634 5630 5625
5659 5661 5661 5661 5659 5657 5657 5657 5654 5652 5650 5650 5651 5651 5650 5649 5648 5650 5649 5649 5648 5648 5652 5655 5654 5655 5661 5665 5665 5664 5664 5662 5661 5659 5656 5654 5651 5648 5646 5643 5640 5637 5633 5628
5646 5649 5651 5652 5653 5652 5652 5651 5650 5649 5649 5649 5649 5650 5649 5648 5647 5646 5646 5648 5648 5648 5650 5652 5655 5656 5660 5661 5662 5662 5662 5661 5658 5656 5656 5655 5653 5650 5647 5645 5641 5638 5635 5631
5632 5636 5637 5639 5642 5642 5644 5644 5644 5645 5646 5646 5646 5647 5647 5646 5645 5645 5645 5646 5647 5648 5649 5651 5652 5653 5655 5656 5657 5659 5660 5660 5659 5658 5656 5655 5653 5651 5648 5646 5643 5640 5636 5632